Location: Del Oro Observatory
(38.3044°N, 104.8119°W)
Time: 20:36:05
(UTC-06:00)

Cosmos 1602 Rocket - Visible Passes

Search period start: 28 July 2014 00:00
Search period end: 07 August 2014 00:00
Orbit: 606 x 635 km, 82.5° (Epoch: 28 July)

Date Brightness Start Highest point End Pass type
(mag) Time Alt. Az. Time Alt. Az. Time Alt. Az.
28 Jul 5.3 21:14:04 10° NNE 21:17:05 18° ENE 21:18:48 15° E visible
28 Jul 4.8 22:51:03 10° NNW 22:55:05 35° W 22:56:00 32° WSW visible
29 Jul 4.4 21:31:06 10° NNE 21:35:07 33° ENE 21:36:45 25° ESE visible
29 Jul 5.7 23:09:39 10° NW 23:12:43 19° W 23:13:57 17° WSW visible
30 Jul 3.6 21:48:36 10° N 21:53:01 65° E 21:54:43 35° SSE visible
31 Jul 3.9 22:06:27 10° NNW 22:10:50 63° W 22:12:43 32° SSW visible
01 Aug 5.1 20:47:23 10° NNE 20:50:36 19° ENE 20:53:32 11° ESE visible
01 Aug 5.1 22:24:37 10° NNW 22:28:32 32° W 22:30:44 20° SW visible
02 Aug 4.3 21:04:30 10° N 21:08:36 36° ENE 21:11:36 16° SE visible
02 Aug 6.1 22:43:21 10° NW 22:46:08 17° W 22:48:48 10° SW visible
03 Aug 3.5 21:22:04 10° N 21:26:30 72° E 21:29:41 18° SSE visible
04 Aug 4.1 21:39:57 10° NNW 21:44:17 56° W 21:47:49 15° S visible
05 Aug 5.4 21:58:12 10° NNW 22:01:58 28° W 22:05:42 10° SSW visible
06 Aug 4.1 20:37:55 10° N 20:42:05 40° ENE 20:46:10 10° SSE visible
06 Aug 6.3 22:17:04 10° NW 22:19:33 15° W 22:22:02 10° WSW visible
